User: anonymous   Login
Location: *
(40.7873°S, 98.7174°E)
Time: 08:06:54
(UTC+00:00)
Language:

NOAA 12 - Orbit

View from above orbital plane
View from above orbital plane
View from above satellite
View from above satellite

Ground track
Ground track

The orbit data is extracted from the following two-line orbital elements,

1 21263U 91032A   22230.94025919  .00000060  00000-0  43069-4 0  9999
2 21263  98.5165 229.0165 0014160 152.1645 208.0296 14.26005183625630
Epoch (UTC): 18 August 2022 22:33:58
Eccentricity: 0.0014160
inclination: 98.5165°
perigee height: 795 km
apogee height: 815 km
right ascension of ascending node: 229.0165°
argument of perigee: 152.1645°
revolutions per day: 14.26005183
mean anomaly at epoch: 208.0296°
orbit number at epoch: 62563

The dashed part of the orbit path shows where the satellite is in the earth's shadow,  

DLR